KQ4PPF Weather Reports


Display with metric or nautical units.
time (UTC)temp
F
wind
direction
speed
MPH
gust
MPH
rain 1hr
in
rain 24hr
in
rain mn
in
humidity
%
barometer
mb
20260506044046 70 305 0.0 0.0 0.00 0.00 0.00 62 1011.0
20260506043543 70 309 0.0 0.0 0.00 0.00 0.00 62 1011.1
20260506043042 70 309 0.0 0.0 0.00 0.00 0.00 61 1011.1
20260506042540 69 301 0.0 0.0 0.00 0.00 0.00 62 1011.1
20260506042038 69 303 0.0 0.0 0.00 0.00 0.00 63 1011.2
20260506041536 69 297 0.0 0.0 0.00 0.00 0.00 63 1011.1
20260506041033 70 301 0.0 0.0 0.00 0.00 0.00 62 1011.2
20260506040531 70 307 0.0 0.0 0.00 0.00 0.00 63 1011.1
20260506040026 70 308 0.0 0.0 0.00 0.00 0.00 62 1010.8
20260506035524 69 305 0.0 0.0 0.00 0.00 0.00 62 1011.2
20260506035020 69 299 0.0 0.0 0.00 0.00 0.00 63 1011.0
20260506034518 69 298 0.0 0.0 0.00 0.00 0.00 62 1011.2
20260506034015 69 304 0.0 0.0 0.00 0.00 0.00 62 1011.4
20260506033512 69 310 0.0 0.0 0.00 0.00 0.00 63 1011.4
20260506033009 69 311 0.0 0.0 0.00 0.00 0.00 66 1011.3
20260506032506 69 311 0.0 0.0 0.00 0.00 0.00 65 1011.5
20260506032002 69 311 0.0 0.0 0.00 0.00 0.00 66 1011.3
20260506031500 70 311 0.0 0.0 0.00 0.00 0.00 61 1011.1
20260506030957 70 311 0.0 0.0 0.00 0.00 0.00 61 1011.3
20260506030455 70 313 0.0 0.0 0.00 0.00 0.00 60 1011.5
20260506025952 70 300 0.0 0.0 0.00 0.00 0.00 59 1011.5
20260506025449 70 300 0.0 0.0 0.00 0.00 0.00 59 1011.1
20260506024945 70 299 0.0 0.0 0.00 0.00 0.00 59 1011.5
20260506024442 70 296 0.0 0.0 0.00 0.00 0.00 59 1011.8
20260506023938 70 304 0.0 0.0 0.00 0.00 0.00 58 1011.5
20260506023435 70 293 0.0 0.0 0.00 0.00 0.00 59 1011.4
20260506022932 71 299 0.0 0.0 0.00 0.00 0.00 59 1011.2
20260506022429 71 301 0.0 0.0 0.00 0.00 0.00 58 1011.0
20260506021927 71 298 0.0 0.0 0.00 0.00 0.00 58 1011.0
20260506021424 71 301 0.0 0.0 0.00 0.00 0.00 57 1011.0
20260506020921 71 301 0.0 0.0 0.00 0.00 0.00 57 1011.2
20260506020419 71 301 0.0 0.0 0.00 0.00 0.00 57 1011.1
20260506015916 71 300 0.0 0.0 0.00 0.00 0.00 57 1010.9
20260506015414 71 294 0.0 0.0 0.00 0.00 0.00 56 1010.8
20260506014910 71 308 0.0 0.0 0.00 0.00 0.00 56 1011.0
20260506014407 71 310 0.0 0.0 0.00 0.00 0.00 56 1010.6
20260506013904 71 299 0.0 0.0 0.00 0.00 0.00 56 1010.6
20260506013402 70 312 0.0 0.0 0.00 0.00 0.00 57 1010.6
20260506012857 71 306 0.0 0.0 0.00 0.00 0.00 56 1010.8
20260506012354 70 298 0.0 0.0 0.00 0.00 0.00 56 1010.7
20260506011851 70 302 0.0 0.0 0.00 0.00 0.00 56 1010.5
20260506011348 70 304 0.0 0.0 0.00 0.00 0.00 55 1010.8
20260506010846 71 302 0.0 0.0 0.00 0.00 0.00 55 1010.6
20260506010344 70 313 0.0 0.0 0.00 0.00 0.00 56 1010.4
20260506005840 70 304 0.0 0.0 0.00 0.00 0.00 55 1010.5
20260506005337 70 303 0.0 0.0 0.00 0.00 0.00 56 1010.6
20260506004833 70 303 0.0 0.0 0.00 0.00 0.00 56 1010.3
20260506004331 70 302 0.0 0.0 0.00 0.00 0.00 56 1010.5
20260506003827 70 310 0.0 0.0 0.00 0.00 0.00 56 1010.5
20260506003323 70 303 0.0 0.0 0.00 0.00 0.00 57 1010.6
20260506002820 70 301 0.0 0.0 0.00 0.00 0.00 55 1010.8
20260506002316 70 302 0.0 0.0 0.00 0.00 0.00 58 1010.9
20260506001812 69 303 0.0 0.0 0.00 0.00 0.00 60 1010.9
20260506001309 69 304 0.0 0.0 0.00 0.00 0.00 59 1010.8
20260506000806 69 303 0.0 0.0 0.00 0.00 0.00 59 1010.8
20260506000304 68 296 0.0 0.0 0.00 0.00 0.00 60 1010.8
20260505235800 68 301 0.0 0.0 0.00 0.00 0.00 64 1010.5
20260505235258 69 302 0.0 0.0 0.00 0.00 0.00 65 1010.6
20260505234755 69 308 0.0 0.0 0.00 0.00 0.00 60 1010.9
20260505234253 69 308 0.0 0.0 0.00 0.00 0.00 62 1010.9
20260505233749 69 303 0.0 0.0 0.00 0.00 0.00 64 1010.8
20260505233247 69 303 0.0 0.0 0.00 0.00 0.00 65 1010.7
20260505232744 69 299 0.0 0.0 0.00 0.00 0.00 66 1010.7
20260505232241 69 299 0.0 0.0 0.00 0.00 0.00 64 1010.8
20260505231737 70 299 0.0 0.0 0.00 0.00 0.00 64 1010.8
20260505231237 70 300 0.0 0.0 0.00 0.00 0.00 59 1010.8
20260505230735 71 304 0.0 0.0 0.00 0.00 0.00 56 1010.6
20260505230231 70 304 0.0 0.0 0.00 0.00 0.00 57 1010.6
20260505225727 70 297 0.0 0.0 0.00 0.00 0.00 56 1010.5
20260505225225 70 313 0.0 0.0 0.00 0.00 0.00 58 1010.7
20260505224720 70 300 0.0 0.0 0.00 0.00 0.00 57 1011.0
20260505224218 70 299 0.0 0.0 0.00 0.00 0.00 56 1010.9
20260505223715 70 299 0.0 0.0 0.00 0.00 0.00 56 1010.9
20260505223211 70 299 0.0 0.0 0.00 0.00 0.00 56 1010.9
20260505222707 71 301 0.0 0.0 0.00 0.00 0.00 55 1010.8
20260505222203 71 310 0.0 0.0 0.00 0.00 0.00 54 1010.9
20260505221701 71 301 0.0 0.0 0.00 0.00 0.00 54 1010.5
20260505221157 71 309 0.0 0.0 0.00 0.00 0.00 54 1010.9
20260505220654 71 316 0.0 0.0 0.00 0.00 0.00 54 1010.9
20260505220152 71 309 0.0 0.0 0.00 0.00 0.00 53 1010.7
20260505215650 71 304 0.0 0.0 0.00 0.00 0.00 54 1010.6
20260505215147 71 305 0.0 0.0 0.00 0.00 0.00 53 1010.7
20260505214645 71 322 0.0 0.0 0.00 0.00 0.00 55 1010.6
20260505214142 72 313 0.0 0.0 0.00 0.00 0.00 54 1011.1
20260505213640 72 301 0.0 0.0 0.00 0.00 0.00 54 1011.1
20260505213136 73 276 0.0 0.0 0.00 0.00 0.00 53 1011.3
20260505212632 74 312 0.0 0.0 0.00 0.00 0.00 48 1011.2
20260505212130 74 296 0.0 0.0 0.00 0.00 0.00 44 1010.9
20260505211627 75 322 1.0 3.0 0.00 0.00 0.00 45 1011.4
20260505211124 75 303 0.0 0.0 0.00 0.00 0.00 46 1011.3
20260505210621 75 295 0.0 0.0 0.00 0.00 0.00 47 1011.3
20260505210117 76 308 0.0 0.0 0.00 0.00 0.00 45 1011.4
20260505205615 76 296 0.0 0.0 0.00 0.00 0.00 44 1011.1
20260505205113 76 324 0.0 0.0 0.00 0.00 0.00 44 1011.5
20260505204610 76 339 1.0 2.0 0.00 0.00 0.00 43 1011.4
20260505204107 76 313 0.0 1.0 0.00 0.00 0.00 43 1011.4
20260505203603 77 321 0.0 1.0 0.00 0.00 0.00 45 1011.3
20260505203101 77 300 0.0 0.0 0.00 0.00 0.00 46 1011.3
20260505202556 77 297 0.0 0.0 0.00 0.00 0.00 44 1011.4
20260505202053 77 309 0.0 0.0 0.00 0.00 0.00 43 1011.6
20260505201549 77 324 0.0 0.0 0.00 0.00 0.00 43 1011.6
20260505201047 78 2 3.0 5.0 0.00 0.00 0.00 43 1011.8
20260505200545 78 294 0.0 0.0 0.00 0.00 0.00 43 1011.9
20260505200042 78 331 2.0 2.0 0.00 0.00 0.00 41 1011.8
20260505195533 78 316 0.0 0.0 0.00 0.00 0.00 44 1012.2
20260505195030 78 23 1.0 2.0 0.00 0.00 0.00 45 1011.7
20260505194527 78 292 0.0 0.0 0.00 0.00 0.00 45 1011.7
20260505194022 78 309 0.0 0.0 0.00 0.00 0.00 45 1011.9
20260505193520 78 314 0.0 0.0 0.00 0.00 0.00 44 1012.0
20260505193017 77 306 0.0 0.0 0.00 0.00 0.00 46 1012.4
20260505192515 77 332 0.0 0.0 0.00 0.00 0.00 44 1012.5
20260505192012 76 318 0.0 0.0 0.00 0.00 0.00 44 1012.5
20260505191505 77 348 0.0 1.0 0.00 0.00 0.00 42 1012.2
20260505191003 78 301 0.0 1.0 0.00 0.00 0.00 40 1012.4
20260505190457 77 342 0.0 1.0 0.00 0.00 0.00 44 1012.4
20260505185952 77 299 0.0 2.0 0.00 0.00 0.00 44 1012.4
20260505185450 77 288 0.0 0.0 0.00 0.00 0.00 46 1012.5
20260505184946 77 297 0.0 0.0 0.00 0.00 0.00 46 1012.2
20260505184442 78 316 1.0 1.0 0.00 0.00 0.00 44 1012.5
20260505183939 78 301 0.0 0.0 0.00 0.00 0.00 46 1012.7
20260505183436 78 359 3.0 5.0 0.00 0.00 0.00 44 1012.8
20260505182933 78 298 0.0 0.0 0.00 0.00 0.00 44 1013.0
20260505182430 78 305 0.0 0.0 0.00 0.00 0.00 42 1012.9
20260505181926 78 276 0.0 0.0 0.00 0.00 0.00 40 1013.3
20260505181424 77 276 0.0 0.0 0.00 0.00 0.00 42 1013.3
20260505180920 77 279 0.0 0.0 0.00 0.00 0.00 43 1013.4
20260505180416 77 314 0.0 0.0 0.00 0.00 0.00 45 1013.3
20260505175913 76 304 0.0 0.0 0.00 0.00 0.00 44 1013.2
20260505175410 76 356 4.0 6.0 0.00 0.00 0.00 42 1013.0
20260505174906 77 4 1.0 2.0 0.00 0.00 0.00 43 1013.4
20260505174404 77 318 0.0 0.0 0.00 0.00 0.00 42 1013.3
20260505173900 77 324 0.0 0.0 0.00 0.00 0.00 44 1013.5
20260505173356 77 22 1.0 2.0 0.00 0.00 0.00 43 1013.7
20260505172853 77 330 0.0 0.0 0.00 0.00 0.00 45 1013.9
20260505172351 77 330 0.0 0.0 0.00 0.00 0.00 44 1013.7
20260505171850 77 300 0.0 0.0 0.00 0.00 0.00 42 1014.1
20260505171348 76 306 0.0 0.0 0.00 0.00 0.00 46 1013.9
20260505170844 76 302 0.0 0.0 0.00 0.00 0.00 47 1014.1
20260505170341 77 302 0.0 0.0 0.00 0.00 0.00 46 1014.3
20260505165836 76 311 0.0 0.0 0.00 0.00 0.00 50 1014.2
20260505165332 77 298 0.0 0.0 0.00 0.00 0.00 48 1014.4
20260505164828 77 319 0.0 0.0 0.00 0.00 0.00 48 1014.4
20260505164325 76 320 0.0 0.0 0.00 0.00 0.00 50 1014.6
20260505163823 75 317 0.0 0.0 0.00 0.00 0.00 48 1014.4
20260505163322 75 332 0.0 0.0 0.00 0.00 0.00 53 1014.4
20260505162820 75 308 0.0 0.0 0.00 0.00 0.00 52 1014.5
20260505162315 74 317 0.0 0.0 0.00 0.00 0.00 56 1014.3
20260505161813 74 318 0.0 2.0 0.00 0.00 0.00 55 1014.3
20260505161310 73 6 0.0 1.0 0.00 0.00 0.00 56 1014.2
20260505160807 74 338 1.0 2.0 0.00 0.00 0.00 56 1014.3
20260505160305 73 303 0.0 0.0 0.00 0.00 0.00 58 1014.3
20260505153244 73 303 0.0 0.0 0.00 0.00 0.00 58 1014.7
20260505152741 73 299 0.0 0.0 0.00 0.00 0.00 58 1014.7
20260505152237 72 304 0.0 0.0 0.00 0.00 0.00 57 1014.7
20260505151731 72 328 0.0 1.0 0.00 0.00 0.00 58 1014.7
20260505151229 71 337 0.0 0.0 0.00 0.00 0.00 59 1014.8
20260505150727 71 309 0.0 0.0 0.00 0.00 0.00 59 1014.6
20260505150224 70 303 0.0 0.0 0.00 0.00 0.00 60 1014.6
20260505140154 65 312 0.0 0.0 0.00 0.00 0.00 67 1014.7
20260505130118 61 307 0.0 0.0 0.00 0.00 0.00 72 1014.9
20260505124607 60 307 0.0 0.0 0.00 0.00 0.00 76 1014.5
20260505124103 60 307 0.0 0.0 0.00 0.00 0.00 74 1014.6
20260505123559 60 306 0.0 0.0 0.00 0.00 0.00 74 1014.6
20260505123056 60 307 0.0 0.0 0.00 0.00 0.00 74 1014.4
20260505122553 60 307 0.0 0.0 0.00 0.00 0.00 74 1014.2
20260505122050 60 307 0.0 0.0 0.00 0.00 0.00 74 1014.2
20260505121546 61 302 0.0 0.0 0.00 0.00 0.00 75 1014.2
20260505121044 60 302 0.0 0.0 0.00 0.00 0.00 77 1014.3
20260505120540 59 302 0.0 0.0 0.00 0.00 0.00 79 1014.2
20260505120035 59 302 0.0 0.0 0.00 0.00 0.00 80 1014.2
20260505115530 59 302 0.0 0.0 0.00 0.00 0.00 78 1013.9
20260505115023 58 302 0.0 0.0 0.00 0.00 0.00 78 1014.0
20260505114520 55 302 0.0 0.0 0.00 0.00 0.00 87 1013.9
20260505114015 54 302 0.0 0.0 0.00 0.00 0.00 87 1013.7
20260505113512 54 301 0.0 0.0 0.00 0.00 0.00 87 1013.7
20260505113008 53 301 0.0 0.0 0.00 0.00 0.00 87 1013.4
20260505112504 53 301 0.0 0.0 0.00 0.00 0.00 87 1013.4
20260505112002 53 301 0.0 0.0 0.00 0.00 0.00 87 1013.4
20260505111456 52 301 0.0 0.0 0.00 0.00 0.00 87 1013.3
20260505110952 52 301 0.0 0.0 0.00 0.00 0.00 87 1013.3
20260505110449 52 301 0.0 0.0 0.00 0.00 0.00 87 1013.3
20260505101921 52 304 0.0 0.0 0.00 0.00 0.00 86 1013.2
20260505101420 52 301 0.0 0.0 0.00 0.00 0.00 88 1012.9
20260505100916 52 301 0.0 0.0 0.00 0.00 0.00 89 1012.8
20260505100413 52 301 0.0 0.0 0.00 0.00 0.00 89 1012.8
20260505095909 51 301 0.0 0.0 0.00 0.00 0.00 89 1012.8
20260505095406 52 301 0.0 0.0 0.00 0.00 0.00 89 1013.1
20260505094902 52 301 0.0 0.0 0.00 0.00 0.00 88 1013.0
20260505094400 52 301 0.0 0.0 0.00 0.00 0.00 88 1012.7
20260505093855 52 301 0.0 0.0 0.00 0.00 0.00 88 1012.6
20260505093352 52 301 0.0 0.0 0.00 0.00 0.00 88 1013.1
20260505092850 52 301 0.0 0.0 0.00 0.00 0.00 88 1012.8
20260505092348 52 301 0.0 0.0 0.00 0.00 0.00 87 1013.1
20260505091844 52 301 0.0 0.0 0.00 0.00 0.00 87 1013.0
20260505091343 53 301 0.0 0.0 0.00 0.00 0.00 87 1012.7
20260505090840 53 301 0.0 0.0 0.00 0.00 0.00 86 1012.8
20260505090338 53 301 0.0 0.0 0.00 0.00 0.00 85 1012.7
20260505085835 53 301 0.0 0.0 0.00 0.00 0.00 85 1012.9
20260505085333 53 301 0.0 0.0 0.00 0.00 0.00 84 1012.9
20260505084831 54 301 0.0 0.0 0.00 0.00 0.00 83 1012.7
20260505084329 54 301 0.0 0.0 0.00 0.00 0.00 83 1012.9
20260505083826 54 301 0.0 0.0 0.00 0.00 0.00 82 1012.7
20260505083323 55 301 0.0 0.0 0.00 0.00 0.00 81 1012.9
20260505082820 55 301 0.0 0.0 0.00 0.00 0.00 79 1012.9
20260505082316 55 301 0.0 0.0 0.00 0.00 0.00 79 1012.9
20260505081813 55 301 0.0 0.0 0.00 0.00 0.00 78 1013.0
20260505081310 56 301 0.0 0.0 0.00 0.00 0.00 77 1013.0
20260505080806 56 301 0.0 0.0 0.00 0.00 0.00 77 1013.1
20260505080302 56 301 0.0 0.0 0.00 0.00 0.00 77 1013.1
20260505075758 56 301 0.0 0.0 0.00 0.00 0.00 77 1013.0
20260505075255 57 301 0.0 0.0 0.00 0.00 0.00 76 1013.0
20260505074752 57 301 0.0 0.0 0.00 0.00 0.00 75 1012.9
20260505074250 57 301 0.0 0.0 0.00 0.00 0.00 75 1012.9
20260505073747 57 301 0.0 0.0 0.00 0.00 0.00 75 1013.0
20260505073245 57 301 0.0 0.0 0.00 0.00 0.00 74 1013.0
20260505072741 58 301 0.0 0.0 0.00 0.00 0.00 74 1013.0
20260505072237 57 301 0.0 0.0 0.00 0.00 0.00 74 1013.0
20260505071733 57 301 0.0 0.0 0.00 0.00 0.00 75 1013.1
20260505071230 57 302 0.0 0.0 0.00 0.00 0.00 74 1013.1
20260505070728 58 302 0.0 0.0 0.00 0.00 0.00 74 1013.2
20260505070224 58 302 0.0 0.0 0.00 0.00 0.00 73 1013.0
20260505065720 58 301 0.0 0.0 0.00 0.00 0.00 73 1013.1
20260505065217 59 302 0.0 0.0 0.00 0.00 0.00 72 1013.0
20260505064714 59 302 0.0 0.0 0.00 0.00 0.00 71 1013.2
20260505064212 59 302 0.0 0.0 0.00 0.00 0.00 71 1013.1
20260505063709 60 302 0.0 0.0 0.00 0.00 0.00 70 1012.9
20260505063205 60 302 0.0 0.0 0.00 0.00 0.00 71 1013.3
20260505062701 60 297 0.0 0.0 0.00 0.00 0.00 70 1013.1
20260505062159 60 300 0.0 0.0 0.00 0.00 0.00 70 1013.4
20260505061656 60 302 0.0 0.0 0.00 0.00 0.00 69 1013.4
20260505061154 60 303 0.0 0.0 0.00 0.00 0.00 69 1013.2
20260505060651 60 302 0.0 0.0 0.00 0.00 0.00 70 1013.2
20260505060148 60 302 0.0 0.0 0.00 0.00 0.00 71 1013.2
20260505055643 60 300 0.0 0.0 0.00 0.00 0.00 72 1013.1
20260505055140 60 301 0.0 0.0 0.00 0.00 0.00 72 1013.4
20260505054637 59 302 0.0 0.0 0.00 0.00 0.00 74 1013.3
20260505054135 57 297 0.0 0.0 0.00 0.00 0.00 77 1013.2
20260505053632 56 299 0.0 0.0 0.00 0.00 0.00 81 1013.2
20260505053129 55 302 0.0 0.0 0.00 0.00 0.00 86 1013.3
20260505052626 55 299 0.0 0.0 0.00 0.00 0.00 87 1013.2
20260505052123 55 299 0.0 0.0 0.00 0.00 0.00 87 1013.2
20260505051620 55 299 0.0 0.0 0.00 0.00 0.00 87 1013.1
20260505051118 55 299 0.0 0.0 0.00 0.00 0.00 87 1013.0
20260505050615 55 299 0.0 0.0 0.00 0.00 0.00 87 1013.2
20260505050114 55 299 0.0 0.0 0.00 0.00 0.00 87 1013.3